Vertical_Velocity
1 2 2 3 2 1 1 1 1 2 2 2 2 1 1 1 1 1 0 0 0 0 0 -0 -1 -1 -1 -0 -0 -0 -0 -1 -1 -0 -0 -0 -0 -0 -0 0 0 0 -0 -0 -0 -0 -0 0 0 0 -0 -0 -0 -0 -0 0 0 0 0 0 0 0 0 0 -0 -0 -0 -0 -0 -0 -0 -0 -0 -0 -0 -0 -1 -1 -1 -1 -1 -1 -2 -2 -2 -2
2 2 3 3 2 1 1 1 1 1 2 1 2 2 1 1 1 0 0 0 0 0 0 0 -0 -1 -1 -0 -0 -0 -0 -0 -0 -0 -0 -0 -0 -0 -0 -0 0 0 0 -0 -0 -0 -0 -0 -0 -0 -0 -0 -0 -0 -0 -0 -0 -0 -0 0 0 0 0 0 0 0 0 0 0 0 0 0 -0 -0 -0 -0 -1 -1 -1 -1 -1 -1 -1 -2 -2 -2
2 2 3 3 3 2 1 1 1 2 2 1 1 1 1 1 1 0 0 0 -0 -0 -0 0 0 -0 -1 -1 -0 0 0 -0 -0 -0 -0 -0 -0 -0 -0 -0 -0 -0 0 -0 -0 -0 -0 -0 -0 -0 -0 -0 -0 -0 -0 -0 -0 -0 -0 -0 0 0 0 0 0 0 0 0 0 0 0 0 0 -0 -0 -0 -0 -0 -0 -1 -1 -1 -1 -1 -1 -1
1 1 2 2 2 3 2 1 1 2 1 1 1 1 1 1 1 1 1 0 -0 -1 -1 -0 0 0 -0 -0 -0 0 0 0 -0 -0 -0 -0 -0 -0 -0 -0 -0 -0 -0 -0 -0 -0 -0 -0 -0 -0 -0 -0 -0 -0 -0 -0 -0 -0 -0 -0 -0 0 0 0 0 0 0 0 0 0 0 0 0 0 -0 -0 -0 -0 -0 -0 -1 -1 -1 -1 -1 -1
1 1 2 1 2 3 4 2 1 2 1 1 1 1 1 1 1 1 1 1 0 -0 -1 -0 -0 0 0 -0 -0 0 0 0 -0 -0 -0 -0 -0 -0 -0 -1 -0 -0 -0 -0 0 0 -0 -0 -0 -0 -0 -0 -1 -1 -1 -0 -0 -0 -0 -0 0 0 0 0 0 0 0 0 1 1 1 1 1 0 0 -0 -0 -0 -1 -1 -1 -1 -1 -1 -1 -1
1 2 1 0 1 3 4 2 1 1 0 -0 -0 0 1 1 1 1 1 1 0 -0 -0 -0 -0 -0 0 0 0 0 1 0 -0 -0 -1 -0 -0 -0 -0 -0 -0 -0 -0 0 0 0 0 -0 -0 -0 -1 -1 -1 -1 -1 -1 -0 -0 -0 0 0 0 0 0 0 0 0 0 0 1 1 1 1 0 0 0 -0 -0 -1 -1 -1 -1 -1 -1 -1 -1
1 2 1 1 1 1 2 2 1 1 0 -0 -0 -0 1 1 2 1 1 0 0 0 0 -0 -0 -0 1 1 1 1 1 0 -0 -0 -1 -0 -0 -0 -0 -0 0 0 0 0 0 0 -0 -0 -0 -0 -1 -1 -1 -1 -1 -1 -0 -0 0 0 0 0 0 0 0 0 0 0 0 0 0 0 0 0 0 0 0 -0 -0 -0 -1 -1 -1 -1 -1 -1
3 3 2 1 1 1 1 3 2 2 1 1 0 0 0 1 1 1 1 0 0 -0 -0 -0 -0 0 1 1 1 1 1 -0 -0 -0 -0 -0 -0 0 0 0 0 0 0 0 -0 -0 -0 -0 -0 -0 -0 -1 -1 -1 -1 -1 -0 -0 0 -0 -0 -0 -0 -0 -0 0 0 0 0 0 0 0 0 0 0 0 0 -0 -0 -0 -0 -1 -1 -1 -1 -1
3 3 2 1 -0 -1 1 5 5 4 2 1 1 0 -0 0 1 1 0 0 0 -0 -0 -0 -0 0 1 1 1 1 1 -0 -0 -0 -0 -0 0 0 0 0 0 0 0 0 -0 -0 -0 -0 -0 -0 -0 -0 -1 -1 -1 -0 -0 -0 -0 -0 -0 -0 -0 -0 -0 -0 -0 -0 -0 -0 -0 -0 -0 -0 -0 -0 -0 -0 -0 -0 -0 -0 -1 -1 -1 -1
2 2 1 1 -1 -1 2 6 6 5 3 1 -0 -1 -2 -0 0 1 0 0 0 0 -0 0 0 -0 0 1 1 1 1 0 0 -0 -0 0 1 1 0 0 -0 0 0 0 0 -0 -0 -0 -0 -0 -0 -0 -1 -1 -1 -0 -0 -0 -0 -1 -1 -1 -1 -1 -1 -1 -0 -0 -0 -0 -0 -0 -0 -0 -0 -0 -0 -0 -0 -0 -0 -0 -0 -1 -1 -1
1 2 1 -0 -0 1 5 6 6 4 2 -0 -1 -2 -2 -1 -0 0 0 -0 -0 -0 0 1 1 0 -0 1 1 1 1 1 1 0 0 1 1 1 0 -0 -0 0 1 1 0 0 -0 -0 -0 -0 -0 -1 -1 -1 -1 -1 -1 -1 -1 -1 -1 -1 -1 -1 -1 -1 -1 -1 -0 -0 -0 -1 -1 -1 -1 -0 -0 -0 -0 -0 -0 -0 -0 -0 -0 -1
0 1 0 -0 1 4 7 8 6 4 1 -1 -2 -3 -2 -2 -1 -0 0 -0 -1 -1 0 1 1 1 1 1 1 1 1 1 1 0 0 1 1 1 -0 -1 -1 -0 1 1 1 0 -0 -0 -0 -0 -1 -1 -1 -1 -1 -1 -1 -1 -1 -1 -1 -1 -1 -1 -1 -1 -1 -1 -1 -1 -1 -1 -1 -1 -1 -1 -1 -0 -0 -0 -0 -0 -0 -0 -0 -0
2 1 1 1 3 5 6 6 4 2 0 -1 -2 -3 -3 -3 -2 -1 0 -0 -0 -1 -0 0 1 1 1 1 1 1 1 1 1 0 -0 1 1 1 -0 -1 -1 -0 0 0 0 0 -0 -0 -0 -0 -1 -1 -1 -1 -1 -1 -1 -1 -1 -1 -1 -1 -2 -2 -1 -1 -1 -1 -1 -1 -1 -1 -1 -1 -1 -1 -1 -1 -0 -0 -0 -0 -0 -0 -0 -0
4 3 3 4 5 5 4 3 2 1 1 -0 -1 -2 -2 -3 -3 -2 -1 -0 -0 0 0 0 0 0 1 1 1 1 1 1 1 -0 -1 0 0 0 -0 -0 -0 -0 -0 -0 0 -0 -1 -0 -0 -0 -1 -1 -1 -1 -1 -1 -1 -1 -1 -1 -1 -1 -1 -1 -1 -1 -1 -1 -1 -1 -1 -1 -1 -1 -1 -1 -1 -1 -1 -0 -0 -0 -0 -0 -0 -0
4 4 4 5 5 4 3 2 2 1 1 -1 -2 -2 -2 -2 -2 -2 -1 -0 0 1 1 1 1 0 -0 0 0 0 0 1 1 0 -1 -1 -0 -1 -1 -0 -0 -0 -1 -0 0 0 -1 -0 -0 -0 -1 -1 -1 -1 -1 -1 -1 -1 -1 -1 -1 -1 -1 -1 -1 -1 -1 -1 -1 -1 -1 -1 -1 -1 -1 -1 -1 -1 -1 -1 -0 -0 -0 -0 -0 -0
2 3 4 4 4 3 2 1 0 -1 -2 -2 -2 -2 -3 -2 -2 -2 -1 -0 1 1 2 2 1 0 1 0 0 -0 -0 0 1 1 -0 0 -0 -1 -2 -0 -0 -1 -1 -0 0 0 -1 -0 -0 -0 -1 -1 -1 -1 -1 -1 -1 -1 -1 -1 -1 -1 -1 -1 -1 -1 -1 -1 -1 -1 -1 -1 -1 -1 -1 -1 -1 -1 -1 -1 -0 -0 -0 -0 -0 -0
1 3 4 4 3 2 3 1 -0 -1 -2 -3 -3 -2 -2 -2 -2 -2 -2 -0 0 1 3 2 1 1 1 -0 -0 -0 -1 0 1 1 -0 1 1 -0 -2 0 0 -1 -2 -1 0 1 -1 -1 -0 -1 -1 -1 -1 -0 -0 -1 -1 -1 -1 -1 -1 -1 -1 -1 -1 -1 -1 -1 -1 -1 -1 -1 -1 -1 -1 -1 -1 -1 -1 -1 -1 -1 -1 -1 -0 -0
1 2 3 2 2 2 1 -0 -0 -1 -3 -4 -3 -2 -1 -0 -0 -0 -0 -0 -0 0 1 1 1 1 1 -1 -1 -0 -1 1 1 0 -0 0 1 0 -1 0 1 -0 -2 -1 0 1 -0 -0 -1 -1 -1 -1 -0 -0 -0 -1 -1 -1 -1 -1 -1 -1 -1 -1 -1 -0 -0 -1 -1 -1 -1 -1 -1 -1 -1 -1 -1 -1 -1 -1 -1 -1 -1 -1 -1 -0
2 2 1 1 1 1 -0 -1 -1 -2 -5 -4 -3 -3 -1 1 1 1 2 -0 -1 -2 -1 -1 -1 -0 -0 0 0 -1 -2 1 1 -0 -0 -1 -0 -0 -0 0 1 0 -2 -1 -0 0 0 0 -0 -1 -2 -1 -1 -0 -0 -1 -1 -2 -2 -2 -2 -1 -1 -1 -1 -0 -1 -1 -1 -1 -1 -1 -1 -1 -1 -1 -1 -1 -1 -1 -1 -1 -1 -1 -1 -1
2 2 2 2 0 -0 -0 -0 -1 -3 -4 -3 -3 -2 -2 -1 -0 1 2 1 -0 -1 -2 -2 -2 -2 -2 -0 -0 -1 -2 -0 1 0 -0 -1 -0 -0 -1 -0 1 1 -1 -1 -0 0 1 1 0 -1 -2 -1 -0 -0 -1 -1 -1 -2 -2 -2 -1 -1 -1 -1 -1 -1 -1 -1 -1 -1 -1 -1 -1 -1 -1 -1 -1 -1 -1 -1 -1 -1 -1 -1 -1 -1
2 2 3 1 -0 -1 -0 0 -1 -2 -2 -2 -2 -2 -2 -3 -2 -1 -1 -2 -2 -2 -2 -2 -2 -2 -2 -1 -0 -1 -2 -0 1 1 -1 -1 -0 -0 -2 -1 1 1 0 -0 -0 -0 1 1 -0 -2 -3 -1 -0 0 -0 -1 -1 -2 -2 -2 -1 -1 -1 -1 -1 -1 -1 -1 -1 -1 -1 -1 -1 -2 -2 -2 -2 -2 -2 -2 -2 -2 -2 -1 -1 -1
2 1 1 -0 -0 0 -0 -0 -1 -1 -1 -1 -2 -2 -3 -3 -3 -3 -4 -3 -2 -1 -1 -1 -1 -1 -1 -0 -0 -1 -2 -0 1 0 -2 -0 -0 -1 -3 -1 0 1 0 -0 0 1 2 2 -0 -2 -3 -1 -0 0 -0 -0 -1 -1 -1 -1 -1 -1 -1 -1 -1 -0 -1 -1 -1 -1 -1 -1 -2 -2 -2 -2 -2 -2 -2 -2 -2 -2 -2 -2 -2 -1
1 0 -0 -0 -0 -0 -1 -1 -0 -0 -1 -1 -1 -1 -2 -1 -1 -1 -1 -0 1 1 1 1 0 0 0 0 -0 -1 -1 -0 -0 -1 -2 -0 -1 -2 -4 -2 0 1 -0 -0 -0 1 3 2 0 -2 -3 -1 0 1 -0 -0 -0 -0 -1 -1 -1 -1 -0 -0 -0 -0 -0 -1 -1 -1 -1 -2 -2 -2 -2 -2 -2 -2 -2 -2 -2 -2 -2 -2 -2 -1
0 -0 -1 -1 -1 -1 -1 -0 0 0 -0 -0 -1 -1 -0 0 0 0 0 1 2 2 1 1 1 1 1 -0 -1 -1 -1 -1 -1 -1 -1 -1 -2 -4 -5 -3 -1 0 1 0 -0 -0 2 2 0 -2 -2 0 1 0 -0 -0 0 -0 -0 -0 -0 -0 -0 -0 -0 -0 -0 -1 -1 -1 -1 -1 -2 -2 -2 -2 -2 -2 -2 -2 -2 -2 -2 -2 -2 -1
0 0 0 -0 -0 -0 -0 -0 -0 0 0 0 0 -0 0 0 0 0 0 1 1 2 1 2 1 1 -1 -1 -1 -0 -0 -2 -2 -1 -1 -2 -3 -4 -4 -4 -3 -1 -0 -0 -1 -1 1 2 0 -2 -2 0 1 0 -1 -0 0 -0 -0 -0 -0 -0 -0 -0 -0 -0 -1 -1 -1 -1 -1 -1 -1 -2 -2 -2 -2 -2 -2 -2 -2 -2 -2 -2 -2 -2
-0 -0 -0 -0 -0 -1 -1 -0 0 1 1 1 1 0 -0 0 0 0 1 1 1 1 2 2 1 -0 -2 -2 -1 -0 -1 -3 -2 -1 -1 -3 -3 -3 -3 -5 -4 -2 -1 -1 -2 -2 0 1 0 -1 -2 0 1 0 -1 -0 -0 -0 -1 -0 -0 -0 -0 -0 -1 -1 -1 -1 -1 -1 -1 -1 -2 -2 -2 -2 -2 -2 -2 -2 -2 -2 -2 -2 -2 -2
-2 -2 -2 -1 -2 -3 -4 -2 0 2 2 1 0 -0 -1 -0 -0 0 0 -0 1 2 3 2 0 -1 -2 -2 -1 -1 -2 -3 -2 -2 -3 -2 -2 -1 -3 -5 -4 -2 -1 -2 -3 -3 -1 1 0 -1 -1 1 1 0 -1 -0 -0 -1 -1 -1 -0 -0 -1 -1 -1 -1 -1 -1 -2 -2 -2 -2 -2 -2 -2 -2 -2 -2 -2 -2 -2 -2 -2 -2 -2 -1
-0 -0 -0 0 -0 -1 -3 -2 -1 1 1 1 0 -0 -1 -1 -0 -0 -1 -1 0 2 3 0 -0 -0 0 -0 -1 -1 -2 -2 -2 -2 -4 -1 -0 -0 -3 -5 -4 -1 -1 -4 -3 -2 0 1 1 0 0 1 1 1 -0 -0 -1 -1 -1 -1 -1 -1 -1 -2 -2 -2 -2 -2 -2 -2 -2 -3 -3 -3 -3 -3 -2 -2 -2 -2 -2 -2 -2 -2 -2 -1
0 1 1 2 1 1 -1 -1 -1 -0 -0 0 0 0 -0 0 0 -0 -2 -1 0 2 1 -1 -1 -0 1 0 -0 -1 -1 -1 -2 -3 -4 -0 1 -0 -3 -4 -2 -1 -3 -6 -4 -1 2 2 2 2 2 3 2 1 1 1 0 -0 0 0 -0 -0 -1 -1 -2 -1 -1 -1 -2 -2 -2 -2 -2 -2 -2 -2 -2 -2 -2 -2 -2 -3 -3 -2 -2 -1
1 1 2 1 1 1 1 0 -0 -1 -1 -1 -0 0 0 0 0 -0 -1 -1 0 1 0 -1 -1 -0 0 -0 -0 -1 -1 -1 -2 -3 -3 -0 1 -0 -3 -2 -1 -0 -4 -7 -7 -4 -1 0 1 2 4 4 3 3 2 2 2 2 2 2 2 2 1 -0 -0 -0 0 -0 -1 -1 -1 -2 -2 -2 -2 -2 -2 -2 -2 -2 -2 -3 -4 -3 -2 -1
1 2 2 2 2 2 2 1 0 -1 -1 -1 -1 -0 -0 -0 0 -0 -1 -1 -0 1 0 -1 -1 -1 -1 -1 -0 -1 -1 -2 -3 -4 -2 -0 0 -1 -4 -2 -0 1 -3 -6 -7 -6 -7 -6 -3 0 3 4 4 4 3 3 3 3 3 3 3 3 2 0 -0 1 1 0 -1 -1 -1 -2 -2 -2 -2 -2 -2 -2 -2 -2 -2 -3 -4 -4 -3 -2
1 2 2 2 2 2 2 1 0 -0 -1 -1 -0 -0 -0 -0 -0 -0 -1 -1 -1 -0 -0 -1 -1 -1 -1 -1 -0 0 0 -2 -4 -5 -4 -1 -0 -1 -4 -3 -1 1 -1 -4 -4 -2 -5 -9 -9 -5 0 3 4 3 3 2 2 2 2 2 2 3 2 0 -0 0 2 0 -1 -1 -1 -1 -2 -2 -2 -2 -2 -2 -2 -1 -2 -3 -4 -5 -4 -4
2 2 2 1 1 1 1 1 1 0 -0 -0 -0 -0 -0 -0 -0 -0 -0 -1 -1 -1 -1 -1 -1 -1 -1 -0 1 2 2 0 -2 -4 -4 -2 -1 -1 -4 -4 -1 0 -1 -3 -3 -1 -1 -6 -9 -9 -6 -1 2 2 1 1 1 1 1 0 1 2 2 0 -0 0 2 0 -0 -1 -0 -0 -1 -2 -1 -1 -1 -1 -1 -1 -1 -2 -4 -5 -5 -5
3 2 2 1 1 2 2 2 1 1 1 0 -0 -0 -0 -0 -0 -0 -1 -1 -1 -1 -1 -1 -1 -1 -2 -1 -1 1 2 1 -2 -4 -4 -2 -1 -2 -4 -4 -2 -0 -1 -3 -3 -3 -3 -4 -7 -9 -10 -6 -1 1 1 -0 -0 -0 -0 -1 -1 -0 1 -0 -1 -0 1 1 0 -0 -0 -0 -1 -1 -1 -1 -1 -1 -1 -0 -0 -0 -1 -3 -4 -5
2 2 1 1 1 1 1 1 1 1 0 -0 -1 -1 -1 -1 -1 -1 -2 -2 -2 -1 -1 -1 -1 -1 -2 -2 -2 -1 -0 -1 -2 -4 -3 -1 -1 -2 -4 -3 -2 -1 -2 -2 -3 -4 -4 -4 -4 -6 -10 -10 -6 -1 1 -0 -0 -0 -0 -1 -1 -1 1 0 -1 -1 -0 1 0 -0 -1 -1 -1 -0 -0 -1 -1 -1 -0 -0 -0 0 0 -1 -2 -4
0 0 -0 -0 -0 -0 -0 -1 -1 -1 -1 -1 -1 -2 -2 -2 -2 -2 -2 -2 -2 -2 -2 -1 -1 -1 -1 -1 -1 -1 -0 -1 -2 -3 -2 -1 -2 -3 -3 -2 -2 -2 -2 -1 -2 -4 -5 -4 -3 -4 -6 -9 -8 -6 -2 -1 -0 1 1 1 -1 -1 0 1 -0 -2 -2 -0 -0 -1 -2 -2 -1 -0 -0 -1 -1 -1 -0 -0 -0 -0 -0 0 -0 -1
-2 -2 -3 -3 -2 -2 -2 -2 -2 -3 -3 -3 -3 -2 -2 -2 -2 -2 -2 -2 -2 -2 -1 -1 -1 -1 -1 -1 -0 -0 0 -1 -2 -2 -2 -2 -2 -2 -2 -1 -2 -2 -2 -0 -1 -3 -6 -5 -4 -4 -5 -6 -6 -7 -7 -6 -4 -1 2 1 -0 -2 -0 1 0 -1 -1 -0 -1 -2 -3 -3 -2 -1 -0 -1 -1 -1 0 1 1 0 -0 1 1 1
-4 -5 -5 -4 -4 -4 -4 -4 -4 -4 -3 -3 -3 -3 -3 -2 -2 -3 -3 -3 -2 -2 -2 -1 -1 -1 -1 -1 -1 -0 -0 -1 -1 -2 -2 -2 -2 -2 -1 -1 -2 -2 -3 -1 -0 -1 -4 -5 -6 -6 -7 -7 -6 -5 -5 -7 -7 -7 -4 -2 -1 -0 1 1 -0 -1 -0 -0 -1 -1 -2 -2 -2 -2 -1 -1 -1 -1 -0 2 2 2 1 2 3 4
-4 -4 -4 -4 -4 -4 -4 -4 -4 -4 -3 -3 -3 -3 -3 -3 -3 -3 -4 -4 -3 -3 -2 -2 -2 -2 -2 -2 -1 -1 -1 -1 -2 -2 -1 -2 -2 -2 -1 -1 -1 -2 -3 -2 -0 -0 -1 -3 -4 -5 -7 -10 -10 -8 -5 -4 -5 -7 -8 -8 -6 -1 4 2 1 0 1 -1 -2 -2 -2 -2 -2 -3 -2 -1 -2 -2 -2 -0 1 2 1 -0 1 3
-3 -2 -3 -3 -3 -3 -3 -3 -4 -3 -3 -1 -1 -2 -3 -3 -3 -4 -4 -4 -4 -4 -3 -3 -2 -2 -2 -2 -1 -1 -1 -1 -1 -1 -1 -1 -1 -2 -2 -1 -1 -1 -2 -2 -1 -0 -0 -2 -3 -4 -4 -7 -9 -10 -10 -7 -5 -5 -7 -12 -13 -10 -2 0 2 2 2 -0 -2 -3 -3 -3 -3 -3 -3 -2 -2 -2 -3 -3 -2 -0 0 -2 -3 -3
-1 -1 -2 -2 -2 -1 -0 -1 -2 -2 -1 -0 -0 -1 -1 -1 -2 -2 -3 -4 -4 -4 -4 -3 -3 -2 -1 -1 -1 -1 -1 -1 -1 -1 -1 -1 -1 -1 -2 -1 -1 -1 -1 -1 -1 -1 -1 -2 -2 -3 -4 -6 -7 -8 -8 -6 -5 -4 -5 -7 -10 -12 -10 -5 -1 2 1 1 -0 -2 -5 -5 -4 -4 -4 -4 -2 -1 -0 -2 -3 -2 -0 -1 -3 -5
-0 -0 -1 -1 -1 -0 0 -1 -1 -1 -1 -0 0 0 -0 -0 -0 -0 -0 -1 -2 -2 -2 -2 -1 -1 -0 1 1 1 0 -0 -0 -0 -0 -0 -0 -1 -1 -1 -1 -1 -1 -1 -1 -1 -1 -2 -2 -2 -2 -4 -7 -9 -9 -6 -4 -3 -2 -3 -6 -10 -13 -8 -2 1 -1 1 2 -1 -6 -6 -5 -4 -5 -5 -4 -1 1 0 -0 -1 -1 -1 -2 -3
-0 -0 -1 -1 -0 -0 0 -0 -1 -1 -1 -1 0 0 0 0 0 0 1 0 -0 -0 -1 -0 -0 -0 0 1 1 1 1 1 0 -0 -0 -0 -0 0 0 0 -0 -1 -2 -2 -1 -1 -2 -2 -1 -0 1 -1 -4 -7 -8 -8 -7 -4 -1 1 -1 -7 -15 -13 -9 -4 -2 2 3 0 -5 -7 -6 -5 -5 -6 -5 -3 -0 1 1 1 1 0 -1 -1
-0 -0 -1 -0 -0 -0 -0 -0 -1 -1 -1 -0 0 1 0 -0 -0 -0 1 1 0 0 -0 -0 -0 -0 0 0 0 1 1 1 1 -0 -1 -1 -1 -0 0 1 0 -0 -2 -2 -3 -3 -4 -4 -1 1 2 -0 -2 -4 -6 -8 -8 -6 -1 1 1 -2 -6 -9 -10 -9 -7 -1 1 1 -3 -6 -6 -6 -6 -6 -6 -4 -2 0 1 2 2 2 1 1
-0 0 -0 -1 -1 -1 -0 -0 -0 -1 -1 0 1 0 -0 -1 -1 -0 1 1 1 1 0 -0 -1 -1 0 0 -0 -1 0 2 1 0 -0 -1 -1 -1 -1 -1 -1 -1 -1 -1 -2 -2 -4 -5 -3 -1 0 -1 -1 -2 -4 -6 -7 -6 -2 1 -0 -2 -4 -3 -4 -6 -8 -5 -2 -1 -3 -5 -6 -7 -7 -8 -8 -6 -3 -0 0 0 1 2 2 1
1 1 0 -1 -1 -0 -0 -0 -0 -0 1 1 0 -0 -1 -1 -1 0 1 1 1 1 0 -1 -1 -1 -1 -1 -2 -2 -1 1 1 1 1 2 2 2 0 -1 -1 -1 -1 -1 -1 -1 -2 -3 -3 -3 -3 -4 -4 -3 -1 -2 -3 -4 -3 -1 -2 -4 -4 -2 -1 -2 -4 -3 -3 -2 -3 -5 -6 -6 -6 -9 -11 -11 -6 -1 -0 -1 -1 -1 -1 -2
1 0 0 0 0 0 1 0 0 1 1 1 0 -1 -1 -1 -0 1 2 2 1 1 0 -1 -2 -2 -1 -1 -3 -3 -3 -2 -1 -0 -0 1 2 3 2 1 -0 -0 -0 -1 -1 -1 -1 -1 -1 -1 -2 -5 -6 -6 -3 -0 0 -0 -0 -1 -4 -6 -6 -3 -1 -1 -2 -2 -1 -2 -3 -6 -7 -7 -7 -10 -13 -13 -10 -5 -2 -0 -0 -2 -4 -5
-0 0 1 1 1 1 1 0 0 1 2 2 0 -0 -0 -0 0 1 2 2 1 -0 -1 -2 -2 -3 -2 -1 -2 -3 -4 -3 -3 -3 -2 -2 -1 -0 -0 -0 0 0 0 -0 -0 -1 -0 0 0 0 -0 -2 -5 -6 -5 -2 -0 -0 1 1 -2 -5 -7 -4 -2 -1 -2 -2 -0 0 -1 -4 -6 -7 -9 -12 -15 -16 -14 -10 -5 -0 3 0 -2 -5
-0 0 1 2 1 1 1 0 1 2 3 2 1 -0 0 0 0 1 1 1 -0 -1 -2 -3 -3 -3 -3 -1 -1 -2 -3 -3 -3 -3 -3 -3 -3 -2 -2 -2 -2 -1 -0 -0 -0 -1 -0 1 2 3 2 -0 -1 -2 -3 -2 -2 -2 -0 1 0 -3 -7 -6 -3 -1 -2 -2 -1 0 -0 -2 -3 -4 -5 -10 -14 -18 -18 -16 -10 -3 4 4 0 -3
0 1 1 1 1 1 0 1 2 3 4 2 0 -0 0 0 0 1 1 0 -0 -2 -3 -4 -4 -4 -3 -2 -2 -3 -3 -3 -3 -4 -4 -4 -4 -4 -3 -4 -5 -5 -4 -3 -3 -3 -3 -1 2 4 5 2 0 -0 0 -0 -3 -5 -4 0 2 0 -5 -6 -4 -3 -4 -4 -2 -0 -0 -2 -2 -2 -2 -5 -10 -15 -18 -18 -14 -7 3 5 2 -2
-0 0 1 1 1 0 0 2 3 4 4 2 1 -0 -0 -0 -0 0 0 0 -1 -2 -3 -4 -4 -4 -3 -3 -3 -4 -4 -4 -4 -4 -5 -5 -5 -5 -4 -4 -6 -7 -7 -6 -6 -7 -8 -7 -4 0 5 6 2 -1 2 2 -1 -6 -10 -4 0 1 -4 -4 -4 -3 -4 -4 -2 -1 -0 -1 -1 -0 1 -1 -6 -12 -17 -18 -17 -11 0 4 2 -2
Height
1498 1499 1499 1500 1501 1501 1501 1502 1502 1503 1504 1504 1505 1505 1506 1506 1506 1507 1507 1507 1508 1508 1508 1508 1508 1509 1509 1509 1510 1510 1511 1511 1511 1511 1512 1512 1512 1512 1512 1512 1512 1512 1512 1512 1512 1512 1511 1511 1511 1511 1511 1511 1510 1510 1510 1510 1510 1509 1509 1509 1509 1508 1508 1508 1507 1507 1507 1506 1506 1506 1505 1505 1504 1504 1503 1503 1503 1502 1502 1502 1501 1501 1500 1500 1499 1498
1497 1498 1498 1499 1500 1500 1500 1501 1501 1502 1502 1503 1504 1504 1504 1505 1505 1505 1506 1506 1507 1507 1507 1507 1507 1508 1508 1508 1509 1509 1509 1510 1510 1510 1510 1510 1511 1511 1511 1511 1511 1511 1511 1511 1511 1511 1510 1510 1510 1510 1510 1510 1509 1509 1509 1509 1509 1509 1508 1508 1508 1507 1507 1507 1507 1506 1506 1505 1505 1505 1504 1504 1503 1503 1502 1502 1502 1502 1501 1501 1500 1500 1499 1499 1498 1498
1496 1497 1497 1498 1499 1499 1500 1500 1500 1501 1501 1502 1502 1503 1503 1504 1504 1504 1505 1505 1505 1505 1506 1506 1507 1507 1507 1507 1507 1508 1508 1508 1509 1509 1509 1509 1509 1510 1510 1510 1510 1510 1510 1510 1510 1510 1509 1509 1509 1509 1509 1509 1508 1508 1508 1508 1508 1508 1507 1507 1507 1507 1506 1506 1506 1505 1505 1504 1504 1503 1503 1503 1502 1502 1502 1501 1501 1501 1500 1500 1499 1499 1498 1498 1497 1497
1494 1496 1496 1497 1498 1498 1499 1499 1499 1500 1500 1501 1501 1502 1502 1502 1503 1503 1504 1504 1504 1504 1504 1505 1505 1506 1506 1506 1506 1507 1507 1507 1507 1508 1508 1508 1508 1508 1508 1508 1509 1509 1509 1509 1509 1509 1508 1508 1508 1508 1508 1507 1507 1507 1507 1507 1507 1507 1507 1506 1506 1506 1505 1505 1505 1504 1504 1503 1503 1502 1502 1502 1501 1501 1501 1500 1500 1499 1499 1499 1498 1498 1497 1497 1496 1496
1493 1494 1495 1496 1497 1497 1498 1498 1498 1498 1499 1499 1500 1500 1501 1502 1502 1502 1502 1502 1503 1503 1503 1504 1504 1505 1505 1505 1505 1505 1506 1506 1506 1507 1507 1507 1507 1507 1507 1507 1507 1507 1507 1508 1508 1507 1507 1507 1507 1507 1507 1507 1506 1506 1506 1506 1506 1506 1505 1505 1505 1505 1504 1504 1503 1503 1503 1502 1502 1502 1501 1501 1500 1500 1499 1499 1499 1498 1498 1497 1497 1497 1496 1496 1495 1495
1492 1493 1494 1495 1496 1496 1497 1497 1497 1497 1498 1498 1498 1499 1500 1501 1501 1501 1501 1502 1502 1502 1502 1502 1503 1503 1504 1504 1504 1504 1505 1505 1505 1505 1505 1506 1506 1506 1506 1506 1506 1507 1507 1507 1507 1507 1507 1506 1506 1506 1506 1505 1505 1505 1505 1505 1505 1505 1504 1504 1504 1503 1503 1503 1502 1502 1502 1501 1501 1500 1500 1500 1499 1499 1498 1498 1497 1497 1497 1496 1496 1496 1495 1495 1494 1494
1490 1491 1492 1493 1494 1495 1496 1496 1496 1497 1497 1497 1497 1498 1499 1499 1500 1500 1500 1500 1500 1501 1501 1501 1502 1502 1502 1503 1503 1503 1503 1504 1504 1504 1504 1504 1505 1505 1505 1505 1505 1505 1505 1505 1505 1505 1505 1505 1505 1505 1504 1504 1504 1504 1504 1504 1504 1503 1503 1503 1502 1502 1502 1502 1501 1501 1500 1500 1500 1499 1499 1498 1498 1497 1497 1497 1497 1496 1496 1495 1495 1494 1494 1493 1493 1492
1489 1490 1491 1492 1492 1493 1494 1495 1495 1495 1495 1495 1496 1497 1497 1498 1499 1499 1499 1499 1499 1499 1500 1500 1500 1501 1501 1502 1502 1502 1502 1502 1502 1503 1503 1503 1504 1504 1504 1504 1504 1504 1504 1504 1504 1504 1504 1504 1504 1504 1503 1503 1503 1503 1503 1502 1502 1502 1502 1502 1501 1501 1501 1500 1500 1499 1499 1499 1498 1498 1497 1497 1497 1496 1496 1496 1495 1495 1494 1494 1493 1493 1492 1492 1492 1491
1487 1488 1489 1490 1491 1492 1493 1494 1494 1494 1494 1494 1495 1495 1496 1497 1497 1498 1498 1498 1498 1498 1498 1499 1499 1500 1500 1500 1501 1501 1501 1501 1502 1502 1502 1502 1502 1503 1503 1503 1503 1503 1503 1503 1503 1503 1503 1503 1503 1502 1502 1502 1502 1502 1502 1502 1501 1501 1501 1501 1500 1500 1499 1499 1498 1498 1498 1497 1497 1497 1496 1496 1496 1495 1495 1494 1494 1493 1493 1492 1492 1492 1491 1491 1490 1490
1486 1487 1487 1488 1489 1491 1492 1492 1492 1492 1492 1493 1493 1494 1495 1496 1496 1497 1497 1497 1497 1497 1497 1497 1498 1498 1499 1499 1499 1500 1500 1500 1500 1501 1501 1501 1502 1502 1502 1502 1502 1502 1502 1502 1502 1502 1502 1502 1502 1501 1501 1501 1501 1501 1500 1500 1500 1500 1499 1499 1499 1498 1498 1497 1497 1497 1497 1496 1496 1495 1495 1495 1494 1494 1493 1493 1492 1492 1492 1491 1491 1490 1490 1489 1489 1488
1484 1485 1486 1487 1488 1489 1491 1491 1491 1491 1491 1491 1492 1492 1493 1494 1495 1496 1496 1496 1496 1496 1497 1497 1497 1497 1497 1498 1498 1499 1499 1499 1499 1500 1500 1500 1500 1500 1500 1500 1500 1500 1500 1501 1501 1500 1500 1500 1500 1500 1500 1500 1499 1499 1499 1499 1499 1498 1498 1498 1497 1497 1497 1496 1496 1496 1495 1495 1494 1494 1494 1493 1493 1492 1492 1492 1491 1491 1490 1490 1489 1489 1488 1488 1487 1487
1482 1483 1485 1486 1487 1488 1489 1489 1489 1489 1489 1490 1491 1491 1492 1492 1493 1494 1494 1495 1495 1495 1495 1496 1496 1496 1497 1497 1497 1497 1498 1498 1498 1498 1499 1499 1499 1499 1499 1498 1498 1499 1499 1499 1499 1499 1499 1499 1499 1499 1498 1498 1498 1498 1498 1498 1497 1497 1497 1497 1496 1496 1496 1495 1495 1494 1494 1493 1493 1492 1492 1492 1491 1491 1490 1490 1489 1489 1489 1488 1488 1487 1487 1487 1486 1486
1481 1482 1483 1484 1485 1486 1487 1487 1487 1488 1488 1489 1490 1490 1491 1491 1492 1492 1493 1493 1494 1494 1494 1495 1495 1495 1496 1496 1496 1497 1497 1497 1497 1497 1497 1498 1498 1498 1497 1497 1497 1497 1498 1498 1498 1498 1498 1498 1497 1497 1497 1497 1497 1497 1497 1497 1496 1496 1496 1495 1495 1495 1494 1494 1493 1493 1493 1492 1492 1491 1491 1490 1490 1489 1489 1488 1488 1487 1487 1487 1486 1486 1485 1485 1484 1484
1480 1481 1482 1483 1484 1484 1485 1485 1486 1486 1487 1487 1488 1489 1489 1490 1491 1491 1492 1492 1492 1493 1493 1493 1494 1494 1494 1495 1495 1495 1496 1496 1496 1497 1496 1496 1497 1496 1496 1496 1496 1496 1497 1496 1496 1496 1497 1496 1496 1496 1496 1496 1495 1495 1495 1495 1495 1495 1494 1494 1494 1493 1493 1492 1492 1492 1491 1491 1490 1490 1489 1489 1488 1488 1487 1487 1487 1486 1486 1485 1485 1484 1484 1483 1483 1482
1478 1479 1480 1481 1482 1482 1483 1484 1484 1485 1485 1486 1487 1487 1488 1489 1489 1490 1491 1491 1491 1492 1492 1492 1493 1493 1493 1494 1494 1494 1494 1495 1495 1495 1495 1495 1495 1495 1495 1495 1495 1495 1495 1495 1495 1495 1495 1495 1495 1494 1494 1494 1494 1494 1494 1494 1493 1493 1493 1492 1492 1492 1492 1491 1491 1490 1490 1489 1489 1488 1488 1487 1487 1486 1486 1485 1485 1484 1484 1483 1483 1482 1482 1482 1481 1481
1476 1477 1478 1479 1480 1481 1482 1482 1482 1483 1484 1484 1485 1486 1487 1488 1488 1489 1489 1490 1490 1491 1491 1492 1492 1492 1492 1492 1492 1493 1493 1494 1494 1494 1494 1494 1494 1494 1494 1494 1493 1494 1494 1494 1494 1494 1494 1494 1493 1493 1493 1493 1493 1492 1492 1492 1492 1492 1491 1491 1491 1490 1490 1490 1489 1489 1488 1488 1487 1487 1486 1486 1485 1485 1484 1484 1483 1483 1482 1482 1481 1481 1480 1480 1479 1479
1474 1475 1476 1477 1478 1479 1479 1480 1481 1482 1482 1483 1484 1485 1486 1487 1487 1487 1488 1489 1489 1490 1490 1490 1491 1491 1491 1491 1491 1492 1492 1492 1492 1493 1493 1493 1492 1492 1493 1492 1492 1492 1493 1493 1493 1492 1493 1492 1492 1492 1492 1492 1492 1491 1491 1491 1491 1490 1490 1489 1489 1489 1488 1488 1487 1487 1487 1486 1486 1485 1485 1484 1484 1483 1482 1482 1482 1481 1480 1480 1479 1479 1478 1478 1477 1477
1472 1473 1474 1476 1477 1477 1478 1479 1479 1480 1481 1482 1483 1484 1485 1486 1486 1487 1487 1487 1488 1488 1489 1489 1489 1490 1490 1490 1490 1490 1491 1491 1491 1492 1492 1491 1491 1491 1491 1491 1491 1491 1492 1492 1492 1492 1492 1491 1491 1491 1490 1490 1490 1490 1490 1489 1489 1488 1488 1488 1487 1487 1487 1487 1486 1486 1485 1485 1484 1484 1483 1482 1482 1481 1481 1480 1480 1479 1479 1478 1478 1477 1477 1476 1476 1475
1471 1472 1473 1474 1475 1476 1477 1477 1478 1479 1480 1481 1482 1482 1484 1484 1485 1486 1486 1486 1487 1487 1487 1488 1488 1488 1488 1489 1488 1488 1489 1489 1490 1490 1491 1490 1489 1490 1490 1490 1490 1490 1490 1490 1490 1490 1490 1490 1490 1489 1489 1489 1489 1489 1488 1488 1487 1487 1487 1486 1486 1486 1485 1485 1484 1484 1483 1483 1482 1482 1481 1481 1480 1479 1479 1478 1478 1477 1477 1476 1476 1475 1475 1474 1474 1473
1471 1472 1472 1473 1474 1475 1476 1476 1477 1478 1479 1480 1481 1482 1482 1483 1484 1484 1485 1485 1485 1486 1486 1487 1487 1487 1487 1487 1487 1487 1487 1488 1488 1489 1489 1489 1488 1488 1488 1488 1488 1488 1489 1489 1489 1489 1489 1488 1488 1488 1487 1487 1487 1487 1487 1487 1486 1485 1485 1484 1484 1484 1483 1483 1482 1482 1482 1481 1481 1480 1479 1479 1478 1477 1477 1476 1476 1475 1475 1474 1474 1473 1473 1472 1472 1471
1471 1471 1472 1472 1473 1474 1475 1476 1477 1477 1478 1479 1480 1480 1481 1482 1482 1483 1483 1484 1484 1485 1485 1485 1485 1486 1486 1486 1486 1486 1486 1487 1487 1487 1487 1487 1487 1486 1487 1487 1487 1487 1487 1487 1488 1488 1487 1487 1487 1486 1486 1486 1486 1486 1485 1485 1484 1484 1483 1483 1482 1482 1482 1481 1481 1480 1480 1479 1478 1478 1477 1477 1476 1476 1475 1474 1474 1473 1473 1472 1472 1471 1471 1470 1470 1469
1470 1471 1471 1472 1473 1473 1474 1475 1476 1477 1477 1478 1479 1479 1480 1481 1482 1482 1482 1483 1483 1484 1484 1484 1484 1484 1484 1484 1484 1485 1485 1485 1485 1485 1486 1486 1485 1485 1485 1486 1486 1485 1486 1486 1487 1486 1486 1485 1485 1485 1484 1484 1484 1484 1484 1483 1482 1482 1482 1481 1481 1480 1480 1479 1479 1478 1478 1477 1477 1476 1475 1475 1474 1473 1473 1472 1472 1471 1471 1470 1470 1469 1469 1468 1467 1467
1470 1471 1471 1472 1472 1473 1474 1475 1475 1476 1477 1477 1478 1478 1479 1480 1481 1481 1482 1482 1482 1483 1483 1483 1483 1483 1483 1483 1483 1483 1483 1483 1484 1484 1484 1484 1484 1483 1484 1484 1484 1484 1484 1485 1485 1485 1484 1484 1484 1483 1483 1483 1482 1482 1482 1482 1481 1480 1480 1479 1479 1478 1478 1477 1477 1476 1476 1475 1474 1474 1473 1472 1472 1472 1471 1470 1470 1469 1468 1468 1467 1467 1467 1466 1465 1465
1470 1471 1471 1472 1472 1473 1473 1474 1475 1476 1476 1477 1477 1478 1478 1479 1480 1480 1481 1481 1482 1482 1482 1482 1482 1482 1482 1482 1482 1482 1482 1482 1482 1482 1483 1482 1482 1482 1483 1483 1482 1482 1483 1483 1483 1483 1482 1482 1482 1482 1482 1481 1481 1481 1480 1480 1479 1478 1478 1477 1477 1477 1476 1475 1475 1474 1473 1473 1472 1472 1471 1471 1470 1469 1469 1468 1467 1467 1466 1466 1465 1465 1464 1464 1463 1462
1470 1471 1471 1472 1472 1473 1473 1474 1475 1475 1476 1476 1477 1477 1478 1478 1479 1479 1480 1480 1481 1481 1481 1481 1481 1480 1480 1481 1481 1481 1481 1481 1481 1481 1481 1481 1481 1481 1481 1481 1481 1481 1481 1482 1482 1482 1481 1481 1481 1481 1480 1479 1479 1479 1478 1478 1477 1477 1476 1476 1475 1475 1474 1473 1473 1472 1472 1471 1470 1470 1469 1468 1468 1467 1467 1466 1465 1465 1464 1463 1463 1462 1462 1461 1461 1460
1470 1471 1471 1472 1472 1472 1473 1473 1474 1475 1475 1476 1476 1477 1477 1477 1478 1479 1479 1479 1480 1480 1480 1480 1479 1479 1479 1479 1479 1479 1480 1480 1480 1480 1480 1480 1480 1480 1480 1480 1480 1479 1479 1479 1480 1480 1479 1479 1479 1479 1479 1478 1477 1477 1477 1476 1476 1475 1475 1474 1473 1473 1472 1472 1471 1470 1469 1469 1468 1467 1467 1466 1466 1465 1464 1463 1463 1462 1462 1461 1461 1460 1459 1459 1458 1457
1470 1470 1471 1471 1472 1472 1472 1472 1473 1474 1475 1475 1475 1476 1476 1477 1477 1478 1478 1479 1479 1479 1479 1478 1478 1478 1478 1478 1478 1478 1478 1479 1478 1478 1479 1479 1478 1478 1478 1479 1478 1477 1477 1477 1478 1478 1478 1477 1477 1477 1477 1477 1476 1476 1475 1475 1474 1474 1473 1472 1472 1471 1470 1470 1469 1468 1467 1467 1466 1466 1465 1464 1463 1462 1462 1461 1461 1460 1459 1459 1458 1457 1457 1456 1456 1455
1471 1471 1471 1472 1472 1472 1472 1472 1472 1473 1474 1474 1475 1475 1475 1476 1476 1477 1477 1477 1478 1477 1477 1477 1478 1478 1477 1477 1477 1477 1477 1477 1477 1477 1478 1477 1477 1477 1477 1477 1477 1476 1475 1476 1476 1477 1477 1476 1476 1476 1476 1476 1475 1475 1474 1473 1473 1472 1472 1471 1470 1470 1469 1468 1467 1467 1466 1465 1464 1464 1463 1462 1461 1461 1460 1459 1458 1458 1457 1457 1456 1455 1454 1454 1453 1452
1471 1471 1471 1472 1472 1472 1471 1472 1472 1472 1473 1473 1474 1474 1475 1475 1476 1476 1477 1477 1477 1476 1476 1477 1477 1477 1477 1477 1477 1477 1477 1477 1477 1477 1477 1476 1476 1476 1477 1476 1475 1474 1474 1474 1474 1474 1474 1475 1475 1475 1474 1474 1474 1474 1473 1472 1472 1471 1470 1470 1469 1468 1467 1467 1466 1465 1464 1464 1463 1462 1461 1460 1459 1459 1458 1457 1457 1456 1455 1454 1453 1452 1452 1451 1451 1450
1470 1470 1471 1471 1471 1471 1471 1471 1472 1472 1472 1473 1473 1474 1474 1475 1475 1475 1476 1476 1475 1475 1475 1475 1476 1476 1475 1476 1476 1476 1476 1476 1476 1476 1475 1475 1474 1475 1476 1475 1474 1473 1473 1472 1471 1471 1471 1472 1473 1473 1472 1472 1472 1472 1472 1471 1470 1470 1469 1469 1468 1467 1466 1466 1465 1464 1463 1462 1462 1461 1460 1459 1458 1457 1456 1455 1455 1454 1453 1452 1451 1450 1449 1449 1448 1447
1469 1470 1470 1470 1471 1471 1471 1471 1471 1472 1472 1472 1472 1473 1473 1474 1474 1474 1475 1475 1475 1474 1474 1474 1474 1475 1475 1475 1475 1475 1474 1475 1475 1475 1474 1473 1473 1473 1474 1473 1472 1472 1472 1472 1470 1468 1467 1468 1470 1470 1470 1470 1470 1471 1470 1470 1469 1468 1468 1467 1467 1466 1465 1464 1463 1462 1462 1461 1460 1459 1458 1457 1456 1455 1454 1454 1453 1452 1451 1450 1449 1448 1447 1446 1445 1445
1469 1469 1469 1470 1470 1470 1471 1471 1471 1471 1471 1472 1472 1472 1473 1473 1473 1474 1474 1474 1474 1474 1474 1474 1474 1474 1474 1474 1474 1474 1474 1474 1473 1473 1473 1472 1471 1472 1472 1472 1471 1470 1471 1471 1470 1468 1467 1466 1466 1467 1467 1467 1467 1467 1468 1468 1467 1467 1466 1465 1465 1464 1463 1463 1462 1461 1460 1459 1459 1458 1457 1456 1455 1454 1453 1452 1451 1450 1449 1448 1447 1446 1445 1444 1443 1442
1468 1468 1469 1469 1469 1470 1470 1471 1471 1471 1471 1471 1472 1472 1472 1472 1473 1473 1473 1473 1473 1473 1473 1473 1473 1473 1473 1473 1473 1473 1473 1473 1472 1472 1472 1470 1470 1470 1471 1471 1470 1469 1469 1469 1469 1468 1467 1465 1464 1464 1465 1464 1464 1465 1465 1465 1465 1464 1464 1463 1462 1462 1462 1461 1460 1459 1458 1457 1457 1456 1455 1454 1453 1452 1452 1451 1450 1449 1448 1447 1446 1445 1444 1442 1441 1440
1467 1468 1468 1468 1469 1469 1469 1470 1470 1471 1471 1471 1471 1472 1472 1472 1472 1472 1472 1472 1472 1472 1472 1472 1472 1472 1472 1472 1472 1472 1472 1472 1471 1471 1470 1469 1468 1468 1469 1469 1469 1468 1467 1467 1467 1466 1465 1464 1463 1462 1462 1462 1462 1462 1462 1462 1462 1462 1462 1461 1460 1460 1459 1459 1458 1457 1457 1456 1455 1454 1453 1452 1452 1451 1450 1449 1448 1447 1446 1446 1445 1444 1442 1441 1440 1438
1467 1467 1467 1467 1468 1468 1468 1469 1469 1470 1470 1471 1471 1471 1471 1471 1471 1471 1471 1471 1471 1471 1471 1471 1471 1471 1471 1471 1471 1470 1470 1470 1470 1470 1469 1468 1467 1467 1467 1467 1467 1467 1466 1465 1465 1464 1464 1462 1462 1461 1461 1460 1460 1460 1461 1460 1460 1459 1459 1459 1459 1458 1457 1457 1456 1456 1454 1454 1453 1452 1451 1450 1449 1449 1448 1447 1446 1445 1445 1444 1443 1442 1441 1440 1438 1437
1466 1466 1467 1467 1467 1467 1468 1468 1468 1469 1469 1470 1470 1470 1471 1471 1470 1470 1470 1470 1470 1470 1470 1470 1470 1470 1470 1470 1470 1469 1469 1469 1469 1469 1468 1467 1467 1467 1466 1466 1466 1466 1465 1464 1463 1462 1462 1461 1460 1460 1459 1458 1457 1457 1458 1459 1458 1458 1457 1457 1457 1456 1455 1455 1454 1453 1452 1452 1451 1450 1449 1448 1447 1446 1446 1445 1444 1443 1442 1442 1441 1440 1439 1438 1437 1436
1465 1465 1466 1466 1467 1467 1467 1467 1468 1468 1468 1469 1469 1469 1470 1470 1469 1469 1469 1469 1469 1469 1469 1469 1469 1469 1469 1469 1469 1468 1468 1468 1468 1467 1467 1466 1466 1465 1465 1464 1464 1464 1464 1463 1462 1461 1461 1460 1458 1458 1458 1457 1457 1456 1456 1456 1457 1456 1456 1455 1455 1455 1454 1453 1452 1452 1451 1450 1448 1448 1447 1446 1445 1444 1443 1443 1442 1442 1441 1440 1439 1439 1438 1437 1436 1435
1464 1465 1465 1466 1466 1466 1467 1467 1467 1468 1468 1468 1468 1468 1468 1468 1468 1468 1468 1468 1468 1468 1468 1468 1468 1468 1468 1468 1467 1467 1467 1467 1467 1466 1466 1465 1464 1464 1463 1463 1462 1463 1463 1462 1461 1460 1459 1459 1457 1456 1456 1456 1455 1455 1454 1454 1454 1454 1454 1454 1453 1453 1452 1451 1451 1450 1449 1448 1447 1446 1445 1444 1443 1442 1442 1441 1440 1439 1439 1438 1437 1437 1436 1435 1434 1433
1464 1464 1465 1465 1466 1466 1466 1467 1467 1467 1467 1467 1467 1467 1467 1467 1467 1467 1467 1467 1467 1467 1467 1467 1467 1467 1467 1466 1466 1466 1466 1466 1465 1465 1464 1464 1463 1463 1462 1462 1461 1461 1461 1461 1460 1459 1458 1457 1457 1455 1454 1453 1453 1453 1453 1453 1452 1452 1452 1452 1452 1452 1451 1450 1449 1448 1447 1447 1446 1444 1443 1442 1442 1441 1440 1439 1438 1437 1437 1436 1435 1434 1434 1433 1432 1431
1463 1464 1464 1465 1465 1465 1466 1466 1466 1467 1467 1467 1467 1467 1467 1466 1466 1466 1465 1465 1465 1465 1465 1465 1465 1465 1465 1465 1465 1465 1465 1464 1464 1463 1463 1462 1462 1462 1461 1461 1460 1459 1459 1459 1459 1458 1457 1456 1456 1455 1454 1453 1452 1451 1451 1451 1451 1451 1450 1449 1448 1448 1449 1449 1448 1447 1446 1445 1444 1443 1442 1441 1440 1439 1438 1437 1436 1435 1434 1433 1432 1432 1431 1431 1429 1428
1463 1463 1463 1464 1464 1465 1465 1465 1465 1466 1466 1466 1466 1466 1466 1465 1465 1465 1464 1464 1464 1464 1464 1464 1464 1464 1464 1464 1464 1464 1463 1463 1463 1462 1462 1462 1461 1461 1460 1459 1459 1458 1458 1457 1457 1456 1456 1455 1454 1453 1452 1452 1451 1450 1449 1449 1449 1449 1449 1447 1446 1446 1446 1447 1446 1445 1444 1443 1442 1441 1440 1439 1438 1437 1436 1435 1434 1433 1432 1432 1431 1430 1429 1428 1427 1426
1462 1462 1463 1463 1463 1464 1464 1464 1464 1464 1465 1465 1465 1465 1465 1464 1464 1464 1464 1464 1464 1463 1463 1463 1463 1463 1463 1463 1463 1463 1462 1462 1462 1461 1461 1460 1460 1459 1459 1458 1457 1457 1457 1456 1455 1454 1454 1454 1453 1452 1451 1451 1450 1448 1447 1447 1447 1448 1447 1446 1444 1443 1443 1443 1444 1444 1443 1441 1440 1439 1439 1437 1436 1434 1434 1433 1432 1431 1431 1430 1429 1428 1427 1426 1425 1424
1461 1462 1462 1462 1462 1462 1463 1463 1463 1463 1463 1464 1463 1463 1463 1463 1463 1463 1463 1463 1463 1463 1462 1462 1462 1462 1462 1462 1462 1462 1461 1461 1460 1460 1459 1459 1459 1458 1458 1457 1457 1456 1455 1454 1453 1452 1452 1452 1452 1451 1450 1450 1449 1447 1445 1444 1445 1446 1446 1445 1444 1442 1440 1439 1440 1441 1441 1439 1438 1437 1437 1435 1434 1432 1431 1431 1430 1429 1428 1428 1427 1426 1425 1424 1423 1422
1460 1460 1461 1461 1461 1462 1462 1462 1462 1462 1462 1462 1462 1462 1462 1462 1462 1462 1462 1462 1462 1462 1461 1461 1461 1460 1460 1460 1460 1460 1460 1459 1459 1458 1458 1458 1457 1457 1457 1456 1455 1454 1454 1453 1452 1451 1450 1450 1450 1450 1449 1448 1447 1445 1444 1443 1443 1443 1443 1443 1442 1441 1439 1437 1437 1437 1437 1437 1436 1435 1434 1433 1432 1430 1429 1428 1427 1427 1426 1425 1424 1423 1423 1422 1421 1420
1458 1459 1459 1460 1460 1460 1460 1460 1461 1461 1461 1461 1461 1461 1461 1461 1461 1461 1461 1461 1461 1460 1460 1460 1459 1459 1459 1459 1459 1459 1458 1458 1457 1457 1457 1456 1456 1455 1455 1454 1453 1453 1452 1452 1451 1450 1449 1448 1448 1447 1447 1447 1445 1444 1442 1442 1442 1441 1441 1441 1440 1439 1437 1436 1435 1435 1435 1434 1433 1432 1432 1431 1430 1428 1427 1425 1425 1424 1423 1422 1421 1420 1420 1419 1418 1417
1457 1457 1458 1458 1458 1459 1459 1459 1459 1459 1459 1460 1460 1460 1460 1460 1460 1459 1459 1459 1459 1459 1459 1458 1458 1458 1457 1457 1457 1457 1457 1457 1456 1456 1456 1455 1455 1454 1453 1453 1452 1451 1451 1450 1449 1448 1448 1447 1446 1445 1445 1444 1443 1442 1442 1441 1441 1439 1438 1438 1438 1437 1435 1434 1434 1433 1433 1432 1431 1430 1429 1429 1428 1426 1424 1422 1422 1421 1420 1420 1419 1417 1417 1416 1415 1414
1455 1456 1457 1457 1457 1457 1457 1457 1458 1458 1458 1458 1458 1458 1458 1458 1458 1458 1458 1458 1458 1458 1457 1457 1457 1457 1456 1456 1456 1456 1455 1455 1455 1454 1454 1454 1453 1452 1452 1451 1451 1450 1449 1448 1447 1447 1446 1445 1445 1444 1443 1442 1441 1440 1440 1440 1439 1438 1437 1436 1435 1434 1433 1432 1432 1432 1431 1430 1429 1428 1427 1427 1425 1423 1422 1420 1419 1418 1417 1416 1416 1415 1414 1413 1412 1411
1453 1454 1455 1455 1455 1456 1456 1456 1456 1457 1457 1457 1457 1457 1457 1457 1457 1457 1457 1457 1457 1457 1456 1456 1456 1456 1455 1455 1455 1455 1454 1453 1453 1453 1453 1452 1452 1451 1450 1449 1448 1448 1447 1447 1446 1445 1444 1444 1443 1442 1442 1440 1439 1437 1437 1437 1438 1437 1435 1434 1433 1432 1431 1430 1430 1429 1429 1428 1427 1426 1426 1425 1423 1422 1420 1418 1416 1415 1414 1413 1412 1412 1411 1410 1409 1408
1452 1452 1452 1453 1453 1453 1454 1454 1455 1455 1455 1455 1455 1455 1455 1456 1456 1456 1456 1456 1456 1455 1455 1455 1455 1455 1454 1454 1454 1453 1453 1452 1452 1451 1451 1451 1450 1449 1448 1447 1447 1446 1445 1444 1443 1443 1442 1442 1441 1440 1440 1439 1438 1436 1435 1435 1435 1435 1434 1432 1432 1431 1430 1428 1427 1427 1427 1426 1425 1424 1424 1423 1422 1420 1419 1417 1414 1412 1411 1410 1409 1409 1408 1408 1407 1406
1450 1450 1450 1451 1451 1452 1452 1453 1453 1454 1454 1454 1454 1454 1454 1454 1454 1454 1454 1454 1454 1454 1454 1454 1453 1453 1453 1453 1452 1452 1452 1451 1450 1450 1449 1449 1448 1447 1446 1445 1444 1444 1443 1442 1441 1440 1440 1439 1438 1438 1438 1438 1437 1435 1433 1432 1432 1432 1432 1431 1430 1429 1428 1427 1426 1425 1425 1424 1423 1422 1422 1421 1420 1419 1418 1416 1413 1411 1409 1407 1407 1406 1406 1405 1404 1403
1448 1448 1448 1449 1449 1450 1451 1452 1452 1452 1452 1452 1452 1453 1453 1453 1453 1453 1453 1453 1453 1453 1453 1453 1452 1452 1452 1452 1451 1451 1450 1450 1449 1448 1447 1447 1447 1446 1444 1443 1442 1442 1441 1439 1438 1437 1437 1436 1435 1434 1435 1436 1436 1435 1433 1431 1430 1430 1430 1429 1428 1427 1426 1425 1424 1424 1423 1423 1422 1421 1420 1419 1418 1417 1417 1415 1412 1409 1407 1405 1404 1403 1403 1402 1402 1400